星链-36619(STARLINK-36619)

导读 | 豆包AI

STARLINK-36619是美国SpaceX星链卫星互联网项目的一颗卫星,于2026年1月30日发射升空。星链计划旨在通过构建近地轨道卫星星座,为全球提供高速低延迟的宽带互联网服务,尤其覆盖偏远与网络基础设施匮乏地区,该卫星将加入庞大星链网络,服务全球用户接入互联网。

基本信息
目录编号:
67645
目录名称:
STARLINK-36619
国际标识:
2026-020AE
轨道中心:
EARTH
卫星名称:
星链-36619
卫星全名:
星链-36619(STARLINK-36619)
卫星状态:
在轨 (已飞行115 天)
发射日期:
2026-01-30 UTC
国别 :
美国 (US)
星等 :
--
轨道信息
数据来源 国际轨道数据
星历时间: 2026-05-25T12:02:47+0800
4小时前
查看轨道信息
半长轴: 6861.137km
偏心率: 0.0001313
轨道倾角: 43.004°
近地点辐角 256.656°
升交点赤经 67.551°
平近点角 103.415°
近地点: 482.099km
远地点: 483.901km
周期: 94.266分钟
每日圈数: 15.275965
详细信息
固有亮度:
5
最大亮度:
2.5
卫星平台:
Starlink V1.0
覆盖范围:
全球
运营商:
太空探索技术公司
运营商所在国:
美国
制造商(研发单位):
太空探索技术公司
制造商所在国:
美国
使用方式:
暂无
卫星简介
Starlink 计划是 SpaceX 推出的全球卫星互联网项目,通过发射低轨道卫星,为全球尤其是偏远地区提供高速、低延迟的互联网服务。自 2019 年起,Starlink 已部署数千颗卫星,旨在缩小全球数字鸿沟,推动互联网普及。该项目还为军事、航空等行业提供通信支持,带来广泛经济效益。
2D轨道图
3D轨道图
轨道高度分析图
轨道倾角分析图
轨道综合分析图
查看轨道综合分析图